This is the latest recevied weather packets stored in our database for station/object VK2XSE. If no packets are shown the sender has not sent any weather packets the latest 10 day(s).
| Time | Temp. | Humidity | Pressure | Rain* | Wind** | Luminosity | Snow |
|---|---|---|---|---|---|---|---|
| 1777869917 | 20° C | 52% | 1014.9 hPa | 0 mm | - | 453 W/m² | - |
| 1777869317 | 20° C | 54% | 1014.8 hPa | 0 mm | - | 475 W/m² | - |
| 1777868717 | 20° C | 50% | 1014.9 hPa | 0 mm | - | 325 W/m² | - |
| 1777868117 | 20° C | 52% | 1014.8 hPa | 0 mm | - | 516 W/m² | - |
| 1777867517 | 20° C | 54% | 1014.8 hPa | 0 mm | - | 529 W/m² | - |
| 1777866917 | 20° C | 53% | 1014.8 hPa | 0 mm | - | 543 W/m² | - |
| 1777866317 | 20° C | 54% | 1014.9 hPa | 0 mm | - | 540 W/m² | - |
| 1777865717 | 19.44° C | 55% | 1015 hPa | 0 mm | - | 587 W/m² | - |
| 1777865117 | 20° C | 55% | 1015 hPa | 0 mm | - | 580 W/m² | - |
| 1777864517 | 19.44° C | 54% | 1015 hPa | 0 mm | - | 578 W/m² | - |
| 1777863917 | 20° C | 53% | 1015.1 hPa | 0 mm | - | 579 W/m² | - |
| 1777863317 | 19.44° C | 55% | 1015.2 hPa | 0 mm | - | 587 W/m² | - |
| 1777862717 | 20° C | 58% | 1015.3 hPa | 0 mm | - | 586 W/m² | - |
| 1777862117 | 19.44° C | 56% | 1015.5 hPa | 0 mm | - | 601 W/m² | - |
| 1777861517 | 19.44° C | 54% | 1015.7 hPa | 0 mm | - | 593 W/m² | - |
| 1777860917 | 19.44° C | 55% | 1015.8 hPa | 0 mm | - | 599 W/m² | - |
| 1777860317 | 19.44° C | 58% | 1016 hPa | 0 mm | - | 591 W/m² | - |
| 1777859717 | 18.89° C | 63% | 1016 hPa | 0 mm | - | 589 W/m² | - |
| 1777859117 | 18.89° C | 63% | 1016.2 hPa | 0 mm | - | 586 W/m² | - |
| 1777858517 | 18.33° C | 68% | 1016.3 hPa | 0 mm | - | 577 W/m² | - |
| 1777857917 | 17.78° C | 70% | 1016.3 hPa | 0 mm | - | 570 W/m² | - |
| 1777857317 | 17.78° C | 73% | 1016.5 hPa | 0 mm | - | 556 W/m² | - |
| 1777856716 | 17.22° C | 77% | 1016.5 hPa | 0 mm | - | 547 W/m² | - |
| 1777856116 | 17.22° C | 81% | 1016.6 hPa | 0 mm | - | 433 W/m² | - |
| 1777855517 | 16.67° C | 83% | 1016.6 hPa | 0 mm | - | 518 W/m² | - |
* Rain latest hour (hover to see other rain measurements)
** Current wind speed in m/s (hover to see current wind gust speed)